Location: Sternwarte Hubelmatt
(47.0367°N, 8.3053°E)
Time: 21:35:39
(UTC+02:00)

HTV-X1 - Visible Passes

Search period start: 18 May 2026 00:00
Search period end: 28 May 2026 00:00
Orbit: 372 x 382 km, 51.6° (Epoch: 18 May)

Date Brightness Start Highest point End Pass type
(mag) Time Alt. Az. Time Alt. Az. Time Alt. Az.
18 May ? 00:43:02 10° WNW 00:43:38 14° WNW 00:43:38 14° WNW visible
18 May ? 22:06:06 10° WNW 22:08:58 34° N 22:11:50 10° ENE visible
18 May ? 23:41:59 10° WNW 23:44:46 70° WNW 23:44:46 70° WNW visible
19 May ? 22:41:00 10° WNW 22:44:02 54° NNE 22:45:54 20° E visible
20 May ? 00:17:03 10° W 00:17:59 17° W 00:17:59 17° W visible
20 May ? 21:39:58 10° WNW 21:42:54 38° NNE 21:45:49 10° E visible
20 May ? 23:15:50 10° WNW 23:18:53 60° SSW 23:19:06 58° S visible
21 May ? 22:14:47 10° WNW 22:17:51 73° NNE 22:20:15 15° ESE visible
21 May ? 23:51:06 10° W 23:52:19 17° WSW 23:52:19 17° WSW visible
22 May ? 22:49:40 10° WNW 22:52:35 40° SW 22:53:28 31° S visible
23 May ? 21:48:30 10° WNW 21:51:35 81° SSW 21:54:38 10° ESE visible
23 May ? 23:25:25 10° WSW 23:26:43 13° SW 23:26:43 13° SW visible
24 May ? 22:23:30 10° W 22:26:10 27° SW 22:27:55 16° S visible
26 May ? 21:57:26 10° W 21:59:38 18° SW 22:01:50 10° S visible
